Date,TemperatureHighF,TemperatureAvgF,TemperatureLowF,DewpointHighF,DewpointAvgF,DewpointLowF,HumidityHigh,HumidityAvg,HumidityLow,PressureMaxIn,PressureMinIn,WindSpeedMaxMPH,WindSpeedAvgMPH,GustSpeedMaxMPH,PrecipitationSumIn
2013-5-1,91.3,71.8,53.6,49.0,32.2,18.0,62,28,9,30.03,29.83,7,1,11,0.00
2013-5-2,91.6,68.9,44.0,49.0,38.7,25.0,88,42,12,30.11,30.02,6,0,10,0.00
2013-5-3,90.7,69.9,46.8,53.0,42.9,34.0,76,43,16,30.04,29.77,6,1,9,0.00
2013-5-4,90.0,64.5,45.7,59.0,48.2,41.0,91,63,18,29.70,29.53,13,1,13,0.00
2013-5-5,63.9,56.8,53.4,52.0,50.0,49.0,87,79,65,29.80,29.60,10,1,15,0.00
2013-5-6,69.1,58.8,50.1,54.0,50.7,48.0,92,76,54,29.94,29.79,7,0,12,0.00
2013-5-7,70.8,59.2,49.4,57.0,51.0,48.0,94,76,47,30.01,29.94,7,1,12,0.00
2013-5-8,66.7,56.7,48.6,56.0,50.9,46.0,93,81,66,30.11,30.01,5,1,7,0.00
2013-5-9,73.5,56.9,46.4,57.0,50.3,45.0,95,81,56,30.13,30.03,3,0,7,0.00
2013-5-10,74.9,58.0,47.2,60.0,51.7,45.0,95,81,57,30.15,30.05,3,0,7,0.00
2013-5-11,84.5,59.3,47.0,63.0,51.8,46.0,96,79,45,30.11,30.00,4,0,8,0.00
2013-5-12,84.6,60.2,43.4,65.0,51.7,42.0,96,77,29,30.11,29.97,4,0,9,0.01
2013-5-13,87.4,63.4,47.4,65.0,54.2,46.0,96,75,44,30.05,29.89,4,0,8,0.00
2013-5-14,85.4,63.9,47.8,60.0,52.0,45.0,93,69,40,29.94,29.83,5,0,6,0.00
2013-5-15,81.1,60.2,42.4,54.0,47.4,41.0,95,67,36,29.99,29.92,8,0,13,0.00
2013-5-16,71.8,59.9,52.8,56.0,50.1,46.0,89,72,51,29.97,29.89,10,2,18,0.00
2013-5-17,71.4,56.9,43.1,51.0,46.0,41.0,94,70,45,30.03,29.93,7,1,15,0.00
2013-5-18,82.7,59.4,41.1,53.0,46.1,40.0,96,67,33,30.09,30.02,7,1,13,0.00
2013-5-19,86.0,66.1,46.0,53.0,46.1,40.0,86,54,22,30.10,29.93,7,1,13,0.00
2013-5-20,88.4,66.7,47.7,55.0,47.6,39.0,91,59,18,29.96,29.84,6,1,12,0.00
2013-5-21,75.1,58.7,45.5,50.0,42.2,34.0,95,61,26,29.96,29.86,8,1,16,0.00
2013-5-22,69.3,56.5,45.2,43.0,35.2,27.0,71,47,21,30.01,29.85,9,2,17,0.00
2013-5-23,72.5,57.7,41.0,47.0,41.2,37.0,85,58,34,29.97,29.88,6,1,13,0.00
2013-5-24,75.1,58.3,39.4,48.0,43.2,34.0,91,62,22,29.96,29.86,5,1,11,0.00
2013-5-25,75.3,64.3,43.1,51.0,47.8,42.0,95,58,39,29.99,29.90,6,1,12,0.00
2013-5-26,70.8,58.9,48.7,53.0,49.3,46.0,92,72,51,30.07,29.99,10,1,16,0.00
2013-5-27,62.6,55.0,46.4,56.0,50.9,44.0,95,86,73,30.07,29.96,5,0,9,0.13
2013-5-28,72.3,61.1,53.4,60.0,54.5,50.0,96,81,58,29.96,29.88,5,1,12,0.05
2013-5-29,76.4,64.1,53.7,57.0,52.7,47.0,89,68,43,29.93,29.84,8,1,11,0.00
2013-5-30,83.0,63.5,42.6,52.0,45.9,41.0,94,59,28,29.95,29.86,6,0,9,0.00
2013-5-31,53.9,50.6,47.0,48.0,44.7,43.0,86,81,75,29.95,29.94,0,0,0,0.00